Regional Weather Roundup
Issued by NWS Northern Indiana

Home | Current Version | Previous Version | Graphics & Text | Print | Product List | Glossary On
Versions: 1 2 3 4 5 6 7 8 9 10 11 12 13 14 15 16 17 18 19 20 21 22 23 24 25 26 27 28 29 30 31 32 33 34 35 36 37 38 39 40 41 42 43 44 45 46 47 48 49 50
329
ASUS43 KIWX 090210
RWRIWX

KIWX WEATHER ROUNDUP
NATIONAL WEATHER SERVICE NORTHERN INDIANA
900 PM EST MON FEB 08 2016

NOTE: "FAIR" INDICATES FEW OR NO CLOUDS BELOW 12,000 FEET WITH NO
SIGNIFICANT WEATHER AND/OR OBSTRUCTIONS TO VISIBILITY.

* THESE STATIONS ARE NOT UNDER NWS QUALITY CONTROL. THEY ALSO MAY NOT
  REPORT WEATHER SUCH AS PRECIPITATION OR FOG.

INZ001>027-090300-
NORTHERN INDIANA

CITY           SKY/WX    TMP DP  RH WIND       PRES   REMARKS
GARY*          CLOUDY    28  19  69 W16       29.75S WCI  17
VALPARAISO     CLOUDY    28  22  78 W10       29.72F WCI  19
MICHIGAN CITY* LGT SNOW  28  27  93 W8        29.73S WCI  20
LAPORTE*       LGT SNOW  29  27  91 W6        29.72S WCI  23
KNOX*          CLOUDY    28  23  80 W13       29.73R WCI  18
SOUTH BEND     LGT SNOW  27  25  92 W10       29.70S VSB 1   WCI  17
ELKHART*       LGT SNOW  28  27  93 W12       29.69F WCI  18
GOSHEN         LGT SNOW  28  25  88 W14       29.68S FOG     WCI  17
MONTICELLO*    CLOUDY    25  18  74 W12       29.75S WCI  14
LOGANSPORT*    CLOUDY    27  19  74 W13G18    29.74F WCI  16
ROCHESTER*     CLOUDY    30  21  69 W7        29.72S WCI  23
WARSAW*        FLURRIES  28  23  80 W14       29.69S WCI  17
ANGOLA*        CLOUDY    30  28  93 W9        29.63F WCI  22
FORT WAYNE     FLURRIES  28  25  88 W16       29.69R WCI  16
HUNTINGTON*    LGT SNOW  26  21  83 W15G22    29.70S WCI  13
PERU/GRISSOM   LGT SNOW  25  21  86 W14       29.71S FOG     WCI  13
MARION*        CLOUDY    25  16  69 W17       29.73S WCI  12

$$
INZ028>050-090300-
CENTRAL INDIANA

CITY           SKY/WX    TMP DP  RH WIND       PRES   REMARKS
LAFAYETTE      CLOUDY    23  17  78 W17       29.78S WCI   9
KOKOMO*        CLOUDY    27  18  69 W16G22    29.73S WCI  14
MUNCIE*        CLOUDY    26  20  77 W16       29.72R WCI  14
INDIANAPOLIS   FLURRIES  22  16  78 W13       29.77S WCI  10

$$
MIZ043>046-050>051-056>058-064>065-071>073-077>080-090300-
SOUTHWEST LOWER MICHIGAN

CITY           SKY/WX    TMP DP  RH WIND       PRES   REMARKS
BATTLE CREEK   LGT SNOW  31  28  89 W14       29.63S FOG     WCI  21
BENTON HARBOR  LGT SNOW  30  26  85 W10       29.69F FOG     WCI  21
COLDWATER*     CLOUDY    31  30  94 W12G17    29.63S WCI  22
HILLSDALE*     CLOUDY    31  29  91 W10       29.60F WCI  22
HOLLAND        CLOUDY    33  30  88 W8        29.65F WCI  26
GRAND RAPIDS   LGT SNOW  33  31  92 W8        29.62F FOG     WCI  26
KALAMAZOO      FLURRIES  31  27  85 W10       29.64F WCI  22
STURGIS*       CLOUDY    30  26  86 W12       29.64S WCI  20
THREE RIVERS*  CLOUDY    31  27  88 W10G20    29.66S WCI  22

$$
OHZ001>008-015>018-024>025-090300-
NORTHWEST OHIO

CITY           SKY/WX    TMP DP  RH WIND       PRES   REMARKS
DEFIANCE       CLOUDY    33  27  78 W9        29.65R WCI  25
FINDLAY        MOCLDY    31  26  82 W6        29.62S WCI  25
TOLEDO EXPRESS MOCLDY    32  26  78 W9        29.61F WCI  24
TOLEDO METCALF CLOUDY    34  26  72 W10       29.62S WCI  26
LIMA           CLOUDY    32  29  88 W13       29.64S WCI  22

$$
AND FOR LAKE MICHIGAN COASTAL AND OPEN LAKE BUOY OBSERVATIONS

STATION/POSITION TEMP    WIND        PRES    VSBY  WAVE
                 AIR SEA DIR/SP/G                  HT/PER
                 (F)     (DEG/KT/KT) (MB)    (MI)  (FT/S)
CALUMET HARBOR    27     260/  8/ 14 1006.7R
MICHIGAN CITY     28     250/ 17/ 19   N/A
BURNS HARBOR      29     290/ 15/ 18 1007.5S
SAINT JOSEPH      30     270/ 14/ 16 1006.1F

$$
&&




USA.gov is the U.S. government's official web portal to all federal, state and local government web resources and services.